#Datum;Uhrzeit;WR;Pac;DaySum;Status;WR;Pac;DaySum;Status;Pdc1;Udc;Temp;WR;Pac;DaySum;Status;Pdc1;Udc;Temp;WR;Pac;DaySum;Status;Pdc1;Udc;Temp;WR;Pac;DaySum;Status;Pdc1;Pdc2;Udc1;Udc2;Temp;WR;Pac;DaySum;Status;Pdc1;Pdc2;Udc1;Udc2;Temp;WR;Pac;DaySum;Status;Pdc1;Udc;Temp;WR;Pac;DaySum;Status;Pdc1;Udc;Temp;WR;Pac;DaySum;Status;Pdc1;Udc;Temp
19.11.20;23:55:00;1;283;10493;0;2;0;4066;0;0;0;0;3;0;2784;0;0;0;0;4;0;3797;0;0;0;0;5;0;0;0;0;0;0;0;0;6;0;9889;0;0;0;0;0;0;7;0;7557;0;0;0;0;8;0;3585;0;0;0;0;9;0;4021;0;0;0;0
19.11.20;23:50:00;1;269;10470;0;2;0;4066;0;0;0;0;3;0;2784;0;0;0;0;4;0;3797;0;0;0;0;5;0;0;0;0;0;0;0;0;6;0;9889;0;0;0;0;0;0;7;0;7557;0;0;0;0;8;0;3585;0;0;0;0;9;0;4021;0;0;0;0
19.11.20;23:45:00;1;291;10448;0;2;0;4066;0;0;0;0;3;0;2784;0;0;0;0;4;0;3797;0;0;0;0;5;0;0;0;0;0;0;0;0;6;0;9889;0;0;0;0;0;0;7;0;7557;0;0;0;0;8;0;3585;0;0;0;0;9;0;4021;0;0;0;0
19.11.20;23:40:00;1;232;10424;0;2;0;4066;0;0;0;0;3;0;2784;0;0;0;0;4;0;3797;0;0;0;0;5;0;0;0;0;0;0;0;0;6;0;9889;0;0;0;0;0;0;7;0;7557;0;0;0;0;8;0;3585;0;0;0;0;9;0;4021;0;0;0;0
19.11.20;23:35:00;1;267;10405;0;2;0;4066;0;0;0;0;3;0;2784;0;0;0;0;4;0;3797;0;0;0;0;5;0;0;0;0;0;0;0;0;6;0;9889;0;0;0;0;0;0;7;0;7557;0;0;0;0;8;0;3585;0;0;0;0;9;0;4021;0;0;0;0
19.11.20;23:30:00;1;327;10383;0;2;0;4066;0;0;0;0;3;0;2784;0;0;0;0;4;0;3797;0;0;0;0;5;0;0;0;0;0;0;0;0;6;0;9889;0;0;0;0;0;0;7;0;7557;0;0;0;0;8;0;3585;0;0;0;0;9;0;4021;0;0;0;0
19.11.20;23:25:00;1;318;10356;0;2;0;4066;0;0;0;0;3;0;2784;0;0;0;0;4;0;3797;0;0;0;0;5;0;0;0;0;0;0;0;0;6;0;9889;0;0;0;0;0;0;7;0;7557;0;0;0;0;8;0;3585;0;0;0;0;9;0;4021;0;0;0;0
19.11.20;23:20:00;1;309;10328;0;2;0;4066;0;0;0;0;3;0;2784;0;0;0;0;4;0;3797;0;0;0;0;5;0;0;0;0;0;0;0;0;6;0;9889;0;0;0;0;0;0;7;0;7557;0;0;0;0;8;0;3585;0;0;0;0;9;0;4021;0;0;0;0
19.11.20;23:15:00;1;301;10301;0;2;0;4066;0;0;0;0;3;0;2784;0;0;0;0;4;0;3797;0;0;0;0;5;0;0;0;0;0;0;0;0;6;0;9889;0;0;0;0;0;0;7;0;7557;0;0;0;0;8;0;3585;0;0;0;0;9;0;4021;0;0;0;0
19.11.20;23:10:00;1;304;10276;0;2;0;4066;0;0;0;0;3;0;2784;0;0;0;0;4;0;3797;0;0;0;0;5;0;0;0;0;0;0;0;0;6;0;9889;0;0;0;0;0;0;7;0;7557;0;0;0;0;8;0;3585;0;0;0;0;9;0;4021;0;0;0;0
19.11.20;23:05:00;1;295;10251;0;2;0;4066;0;0;0;0;3;0;2784;0;0;0;0;4;0;3797;0;0;0;0;5;0;0;0;0;0;0;0;0;6;0;9889;0;0;0;0;0;0;7;0;7557;0;0;0;0;8;0;3585;0;0;0;0;9;0;4021;0;0;0;0
19.11.20;23:00:00;1;286;10226;0;2;0;4066;0;0;0;0;3;0;2784;0;0;0;0;4;0;3797;0;0;0;0;5;0;0;0;0;0;0;0;0;6;0;9889;0;0;0;0;0;0;7;0;7557;0;0;0;0;8;0;3585;0;0;0;0;9;0;4021;0;0;0;0
19.11.20;22:55:00;1;237;10201;0;2;0;4066;0;0;0;0;3;0;2784;0;0;0;0;4;0;3797;0;0;0;0;5;0;0;0;0;0;0;0;0;6;0;9889;2;0;0;0;0;0;7;0;7557;0;0;0;0;8;0;3585;0;0;0;0;9;0;4021;0;0;0;0
19.11.20;22:50:00;1;238;10182;0;2;0;4066;0;0;0;0;3;0;2784;0;0;0;0;4;0;3797;0;0;0;0;5;0;0;0;0;0;0;0;0;6;0;9889;2;0;0;0;0;0;7;0;7557;0;0;0;0;8;0;3585;0;0;0;0;9;0;4021;0;0;0;0
19.11.20;22:45:00;1;239;10162;0;2;0;4066;0;0;0;0;3;0;2784;0;0;0;0;4;0;3797;0;0;0;0;5;0;0;0;0;0;0;0;0;6;0;9889;2;0;0;0;0;0;7;0;7557;0;0;0;0;8;0;3585;0;0;0;0;9;0;4021;0;0;0;0
19.11.20;22:40:00;1;247;10142;0;2;0;4066;0;0;0;0;3;0;2784;0;0;0;0;4;0;3797;0;0;0;0;5;0;0;0;0;0;0;0;0;6;0;9889;2;0;0;0;0;0;7;0;7557;0;0;0;0;8;0;3585;0;0;0;0;9;0;4021;0;0;0;0
19.11.20;22:35:00;1;293;10121;0;2;0;4066;0;0;0;0;3;0;2784;0;0;0;0;4;0;3797;0;0;0;0;5;0;0;0;0;0;0;0;0;6;0;9889;2;0;0;0;0;0;7;0;7557;0;0;0;0;8;0;3585;0;0;0;0;9;0;4021;0;0;0;0
19.11.20;22:30:00;1;375;10096;0;2;0;4066;0;0;0;0;3;0;2784;0;0;0;0;4;0;3797;0;0;0;0;5;0;0;0;0;0;0;0;0;6;0;9889;2;0;0;0;0;0;7;0;7557;0;0;0;0;8;0;3585;0;0;0;0;9;0;4021;0;0;0;0
19.11.20;22:25:00;1;351;10064;0;2;0;4066;0;0;0;0;3;0;2784;0;0;0;0;4;0;3797;0;0;0;0;5;0;0;0;0;0;0;0;0;6;0;9889;2;0;0;0;0;0;7;0;7557;0;0;0;0;8;0;3585;0;0;0;0;9;0;4021;0;0;0;0
19.11.20;22:20:00;1;504;10034;0;2;0;4066;0;0;0;0;3;0;2784;0;0;0;0;4;0;3797;0;0;0;0;5;0;0;0;0;0;0;0;0;6;0;9889;2;0;0;0;0;0;7;0;7557;0;0;0;0;8;0;3585;0;0;0;0;9;0;4021;0;0;0;0
19.11.20;22:15:00;1;517;9993;0;2;0;4066;0;0;0;0;3;0;2784;0;0;0;0;4;0;3797;0;0;0;0;5;0;0;0;0;0;0;0;0;6;0;9889;2;0;0;0;0;0;7;0;7557;0;0;0;0;8;0;3585;0;0;0;0;9;0;4021;0;0;0;0
19.11.20;22:10:00;1;503;9950;0;2;0;4066;0;0;0;0;3;0;2784;0;0;0;0;4;0;3797;0;0;0;0;5;0;0;0;0;0;0;0;0;6;0;9889;2;0;0;0;0;0;7;0;7557;0;0;0;0;8;0;3585;0;0;0;0;9;0;4021;0;0;0;0
19.11.20;22:05:00;1;453;9908;0;2;0;4066;0;0;0;0;3;0;2784;0;0;0;0;4;0;3797;0;0;0;0;5;0;0;0;0;0;0;0;0;6;0;9889;2;0;0;0;0;0;7;0;7557;0;0;0;0;8;0;3585;0;0;0;0;9;0;4021;0;0;0;0
19.11.20;22:00:00;1;451;9869;0;2;0;4066;0;0;0;0;3;0;2784;0;0;0;0;4;0;3797;0;0;0;0;5;0;0;0;0;0;0;0;0;6;0;9889;2;0;0;0;0;0;7;0;7557;0;0;0;0;8;0;3585;0;0;0;0;9;0;4021;0;0;0;0
19.11.20;21:55:00;1;394;9833;0;2;0;4066;0;0;0;0;3;0;2784;0;0;0;0;4;0;3797;0;0;0;0;5;0;0;0;0;0;0;0;0;6;0;9889;2;0;0;0;0;0;7;0;7557;0;0;0;0;8;0;3585;0;0;0;0;9;0;4021;0;0;0;0
19.11.20;21:50:00;1;420;9801;0;2;0;4066;0;0;0;0;3;0;2784;0;0;0;0;4;0;3797;0;0;0;0;5;0;0;0;0;0;0;0;0;6;0;9889;2;0;0;0;0;0;7;0;7557;0;0;0;0;8;0;3585;0;0;0;0;9;0;4021;0;0;0;0
19.11.20;21:45:00;1;411;9766;0;2;0;4066;0;0;0;0;3;0;2784;0;0;0;0;4;0;3797;0;0;0;0;5;0;0;0;0;0;0;0;0;6;0;9889;2;0;0;0;0;0;7;0;7557;0;0;0;0;8;0;3585;0;0;0;0;9;0;4021;0;0;0;0
19.11.20;21:40:00;1;411;9732;0;2;0;4066;0;0;0;0;3;0;2784;0;0;0;0;4;0;3797;0;0;0;0;5;0;0;0;0;0;0;0;0;6;0;9889;2;0;0;0;0;0;7;0;7557;0;0;0;0;8;0;3585;0;0;0;0;9;0;4021;0;0;0;0
19.11.20;21:35:00;1;460;9697;0;2;0;4066;0;0;0;0;3;0;2784;0;0;0;0;4;0;3797;0;0;0;0;5;0;0;0;0;0;0;0;0;6;0;9889;2;0;0;0;0;0;7;0;7557;0;0;0;0;8;0;3585;0;0;0;0;9;0;4021;0;0;0;0
19.11.20;21:30:00;1;448;9658;0;2;0;4066;0;0;0;0;3;0;2784;0;0;0;0;4;0;3797;0;0;0;0;5;0;0;0;0;0;0;0;0;6;0;9889;2;0;0;0;0;0;7;0;7557;0;0;0;0;8;0;3585;0;0;0;0;9;0;4021;0;0;0;0
19.11.20;21:25:00;1;446;9621;0;2;0;4066;0;0;0;0;3;0;2784;0;0;0;0;4;0;3797;0;0;0;0;5;0;0;0;0;0;0;0;0;6;0;9889;2;0;0;0;0;0;7;0;7557;0;0;0;0;8;0;3585;0;0;0;0;9;0;4021;0;0;0;0
19.11.20;21:20:00;1;520;9584;0;2;0;4066;0;0;0;0;3;0;2784;0;0;0;0;4;0;3797;0;0;0;0;5;0;0;0;0;0;0;0;0;6;0;9889;2;0;0;0;0;0;7;0;7557;0;0;0;0;8;0;3585;0;0;0;0;9;0;4021;0;0;0;0
19.11.20;21:15:00;1;496;9541;0;2;0;4066;0;0;0;0;3;0;2784;0;0;0;0;4;0;3797;0;0;0;0;5;0;0;0;0;0;0;0;0;6;0;9889;2;0;0;0;0;0;7;0;7557;0;0;0;0;8;0;3585;0;0;0;0;9;0;4021;0;0;0;0
19.11.20;21:10:00;1;449;9500;0;2;0;4066;0;0;0;0;3;0;2784;0;0;0;0;4;0;3797;0;0;0;0;5;0;0;0;0;0;0;0;0;6;0;9889;2;0;0;0;0;0;7;0;7557;0;0;0;0;8;0;3585;0;0;0;0;9;0;4021;0;0;0;0
19.11.20;21:05:00;1;511;9464;0;2;0;4066;0;0;0;0;3;0;2784;0;0;0;0;4;0;3797;0;0;0;0;5;0;0;0;0;0;0;0;0;6;0;9889;2;0;0;0;0;0;7;0;7557;0;0;0;0;8;0;3585;0;0;0;0;9;0;4021;0;0;0;0
19.11.20;21:00:00;1;528;9420;0;2;0;4066;0;0;0;0;3;0;2784;0;0;0;0;4;0;3797;0;0;0;0;5;0;0;0;0;0;0;0;0;6;0;9889;2;0;0;0;0;0;7;0;7557;0;0;0;0;8;0;3585;0;0;0;0;9;0;4021;0;0;0;0
19.11.20;20:55:00;1;514;9376;0;2;0;4066;0;0;0;0;3;0;2784;0;0;0;0;4;0;3797;0;0;0;0;5;0;0;0;0;0;0;0;0;6;0;9889;2;0;0;0;0;0;7;0;7557;0;0;0;0;8;0;3585;0;0;0;0;9;0;4021;0;0;0;0
19.11.20;20:50:00;1;464;9334;0;2;0;4066;0;0;0;0;3;0;2784;0;0;0;0;4;0;3797;0;0;0;0;5;0;0;0;0;0;0;0;0;6;0;9889;2;0;0;0;0;0;7;0;7557;0;0;0;0;8;0;3585;0;0;0;0;9;0;4021;0;0;0;0
19.11.20;20:45:00;1;442;9295;0;2;0;4066;0;0;0;0;3;0;2784;0;0;0;0;4;0;3797;0;0;0;0;5;0;0;0;0;0;0;0;0;6;0;9889;2;0;0;0;0;0;7;0;7557;0;0;0;0;8;0;3585;0;0;0;0;9;0;4021;0;0;0;0
19.11.20;20:40:00;1;489;9257;0;2;0;4066;0;0;0;0;3;0;2784;0;0;0;0;4;0;3797;0;0;0;0;5;0;0;0;0;0;0;0;0;6;0;9889;2;0;0;0;0;0;7;0;7557;0;0;0;0;8;0;3585;0;0;0;0;9;0;4021;0;0;0;0
19.11.20;20:35:00;1;502;9216;0;2;0;4066;0;0;0;0;3;0;2784;0;0;0;0;4;0;3797;0;0;0;0;5;0;0;0;0;0;0;0;0;6;0;9889;2;0;0;0;0;0;7;0;7557;0;0;0;0;8;0;3585;0;0;0;0;9;0;4021;0;0;0;0
19.11.20;20:30:00;1;503;9175;0;2;0;4066;0;0;0;0;3;0;2784;0;0;0;0;4;0;3797;0;0;0;0;5;0;0;0;0;0;0;0;0;6;0;9889;2;0;0;0;0;0;7;0;7557;0;0;0;0;8;0;3585;0;0;0;0;9;0;4021;0;0;0;0
19.11.20;20:25:00;1;518;9132;0;2;0;4066;0;0;0;0;3;0;2784;0;0;0;0;4;0;3797;0;0;0;0;5;0;0;0;0;0;0;0;0;6;0;9889;2;0;0;0;0;0;7;0;7557;0;0;0;0;8;0;3585;0;0;0;0;9;0;4021;0;0;0;0
19.11.20;20:20:00;1;380;9091;0;2;0;4066;0;0;0;0;3;0;2784;0;0;0;0;4;0;3797;0;0;0;0;5;0;0;0;0;0;0;0;0;6;0;9889;2;0;0;0;0;0;7;0;7557;0;0;0;0;8;0;3585;0;0;0;0;9;0;4021;0;0;0;0
19.11.20;20:15:00;1;551;9059;0;2;0;4066;0;0;0;0;3;0;2784;0;0;0;0;4;0;3797;0;0;0;0;5;0;0;0;0;0;0;0;0;6;0;9889;2;0;0;0;0;0;7;0;7557;0;0;0;0;8;0;3585;0;0;0;0;9;0;4021;0;0;0;0
19.11.20;20:10:00;1;706;9015;0;2;0;4066;0;0;0;0;3;0;2784;0;0;0;0;4;0;3797;0;0;0;0;5;0;0;0;0;0;0;0;0;6;0;9889;2;0;0;0;0;0;7;0;7557;0;0;0;0;8;0;3585;0;0;0;0;9;0;4021;0;0;0;0
19.11.20;20:05:00;1;372;8959;0;2;0;4066;0;0;0;0;3;0;2784;0;0;0;0;4;0;3797;0;0;0;0;5;0;0;0;0;0;0;0;0;6;0;9889;2;0;0;0;0;0;7;0;7557;0;0;0;0;8;0;3585;0;0;0;0;9;0;4021;0;0;0;0
19.11.20;20:00:00;1;323;8925;0;2;0;4066;0;0;0;0;3;0;2784;0;0;0;0;4;0;3797;0;0;0;0;5;0;0;0;0;0;0;0;0;6;0;9889;2;0;0;0;0;0;7;0;7557;0;0;0;0;8;0;3585;0;0;0;0;9;0;4021;0;0;0;0
19.11.20;19:55:00;1;324;8898;0;2;0;4066;0;0;0;0;3;0;2784;0;0;0;0;4;0;3797;0;0;0;0;5;0;0;0;0;0;0;0;0;6;0;9889;2;0;0;0;0;0;7;0;7557;0;0;0;0;8;0;3585;0;0;0;0;9;0;4021;0;0;0;0
19.11.20;19:50:00;1;321;8871;0;2;0;4066;0;0;0;0;3;0;2784;0;0;0;0;4;0;3797;0;0;0;0;5;0;0;0;0;0;0;0;0;6;0;9889;2;0;0;0;0;0;7;0;7557;0;0;0;0;8;0;3585;0;0;0;0;9;0;4021;0;0;0;0
19.11.20;19:45:00;1;306;8844;0;2;0;4066;0;0;0;0;3;0;2784;0;0;0;0;4;0;3797;0;0;0;0;5;0;0;0;0;0;0;0;0;6;0;9889;2;0;0;0;0;0;7;0;7557;0;0;0;0;8;0;3585;0;0;0;0;9;0;4021;0;0;0;0
19.11.20;19:40:00;1;328;8819;0;2;0;4066;0;0;0;0;3;0;2784;0;0;0;0;4;0;3797;0;0;0;0;5;0;0;0;0;0;0;0;0;6;0;9889;2;0;0;0;0;0;7;0;7557;0;0;0;0;8;0;3585;0;0;0;0;9;0;4021;0;0;0;0
19.11.20;19:35:00;1;325;8791;0;2;0;4066;0;0;0;0;3;0;2784;0;0;0;0;4;0;3797;0;0;0;0;5;0;0;0;0;0;0;0;0;6;0;9889;2;0;0;0;0;0;7;0;7557;0;0;0;0;8;0;3585;0;0;0;0;9;0;4021;0;0;0;0
19.11.20;19:30:00;1;330;8764;0;2;0;4066;0;0;0;0;3;0;2784;0;0;0;0;4;0;3797;0;0;0;0;5;0;0;0;0;0;0;0;0;6;0;9889;2;0;0;0;0;0;7;0;7557;0;0;0;0;8;0;3585;0;0;0;0;9;0;4021;0;0;0;0
19.11.20;19:25:00;1;341;8737;0;2;0;4066;0;0;0;0;3;0;2784;0;0;0;0;4;0;3797;0;0;0;0;5;0;0;0;0;0;0;0;0;6;0;9889;2;0;0;0;0;0;7;0;7557;0;0;0;0;8;0;3585;0;0;0;0;9;0;4021;0;0;0;0
19.11.20;19:20:00;1;362;8708;0;2;0;4066;0;0;0;0;3;0;2784;0;0;0;0;4;0;3797;0;0;0;0;5;0;0;0;0;0;0;0;0;6;0;9889;2;0;0;0;0;0;7;0;7557;0;0;0;0;8;0;3585;0;0;0;0;9;0;4021;0;0;0;0
19.11.20;19:15:00;1;685;8678;0;2;0;4066;0;0;0;0;3;0;2784;0;0;0;0;4;0;3797;0;0;0;0;5;0;0;0;0;0;0;0;0;6;0;9889;2;0;0;0;0;0;7;0;7557;0;0;0;0;8;0;3585;0;0;0;0;9;0;4021;0;0;0;0
19.11.20;19:10:00;1;566;8623;0;2;0;4066;0;0;0;0;3;0;2784;0;0;0;0;4;0;3797;0;0;0;0;5;0;0;0;0;0;0;0;0;6;0;9889;2;0;0;0;0;0;7;0;7557;0;0;0;0;8;0;3585;0;0;0;0;9;0;4021;0;0;0;0
19.11.20;19:05:00;1;462;8574;0;2;0;4066;0;0;0;0;3;0;2784;0;0;0;0;4;0;3797;0;0;0;0;5;0;0;0;0;0;0;0;0;6;0;9889;2;0;0;0;0;0;7;0;7557;0;0;0;0;8;0;3585;0;0;0;0;9;0;4021;0;0;0;0
19.11.20;19:00:00;1;284;8533;0;2;0;4066;0;0;0;0;3;0;2784;0;0;0;0;4;0;3797;0;0;0;0;5;0;0;0;0;0;0;0;0;6;0;9889;2;0;0;0;0;0;7;0;7557;0;0;0;0;8;0;3585;0;0;0;0;9;0;4021;0;0;0;0
19.11.20;18:55:00;1;266;8508;0;2;0;4066;0;0;0;0;3;0;2784;0;0;0;0;4;0;3797;0;0;0;0;5;0;0;0;0;0;0;0;0;6;0;9889;2;0;0;0;0;0;7;0;7557;0;0;0;0;8;0;3585;0;0;0;0;9;0;4021;0;0;0;0
19.11.20;18:50:00;1;336;8485;0;2;0;4066;0;0;0;0;3;0;2784;0;0;0;0;4;0;3797;0;0;0;0;5;0;0;0;0;0;0;0;0;6;0;9889;2;0;0;0;0;0;7;0;7557;0;0;0;0;8;0;3585;0;0;0;0;9;0;4021;0;0;0;0
19.11.20;18:45:00;1;410;8458;0;2;0;4066;0;0;0;0;3;0;2784;0;0;0;0;4;0;3797;0;0;0;0;5;0;0;0;0;0;0;0;0;6;0;9889;2;0;0;0;0;0;7;0;7557;0;0;0;0;8;0;3585;0;0;0;0;9;0;4021;0;0;0;0
19.11.20;18:40:00;1;413;8420;0;2;0;4066;0;0;0;0;3;0;2784;0;0;0;0;4;0;3797;0;0;0;0;5;0;0;0;0;0;0;0;0;6;0;9889;2;0;0;0;0;0;7;0;7557;0;0;0;0;8;0;3585;0;0;0;0;9;0;4021;0;0;0;0
19.11.20;18:35:00;1;319;8387;0;2;0;4066;0;0;0;0;3;0;2784;0;0;0;0;4;0;3797;0;0;0;0;5;0;0;0;0;0;0;0;0;6;0;9889;2;0;0;0;0;0;7;0;7557;0;0;0;0;8;0;3585;0;0;0;0;9;0;4021;0;0;0;0
19.11.20;18:30:00;1;312;8360;0;2;0;4066;0;0;0;0;3;0;2784;0;0;0;0;4;0;3797;0;0;0;0;5;0;0;0;0;0;0;0;0;6;0;9889;2;0;0;0;0;0;7;0;7557;0;0;0;0;8;0;3585;0;0;0;0;9;0;4021;0;0;0;0
19.11.20;18:25:00;1;312;8334;0;2;0;4066;0;0;0;0;3;0;2784;0;0;0;0;4;0;3797;0;0;0;0;5;0;0;0;0;0;0;0;0;6;0;9889;2;0;0;0;0;0;7;0;7557;0;0;0;0;8;0;3585;0;0;0;0;9;0;4021;0;0;0;0
19.11.20;18:20:00;1;291;8308;0;2;0;4066;0;0;0;0;3;0;2784;0;0;0;0;4;0;3797;0;0;0;0;5;0;0;0;0;0;0;0;0;6;0;9889;2;0;0;0;0;0;7;0;7557;0;0;0;0;8;0;3585;0;0;0;0;9;0;4021;0;0;0;0
19.11.20;18:15:00;1;276;8284;0;2;0;4066;0;0;0;0;3;0;2784;0;0;0;0;4;0;3797;0;0;0;0;5;0;0;0;0;0;0;0;0;6;0;9889;2;0;0;0;0;0;7;0;7557;0;0;0;0;8;0;3585;0;0;0;0;9;0;4021;0;0;0;0
19.11.20;18:10:00;1;295;8259;0;2;0;4066;0;0;0;0;3;0;2784;0;0;0;0;4;0;3797;0;0;0;0;5;0;0;0;0;0;0;0;0;6;0;9889;2;0;0;0;0;0;7;0;7557;0;0;0;0;8;0;3585;0;0;0;0;9;0;4021;0;0;0;0
19.11.20;18:05:00;1;320;8235;0;2;0;4066;0;0;0;0;3;0;2784;0;0;0;0;4;0;3797;0;0;0;0;5;0;0;0;0;0;0;0;0;6;0;9889;2;0;0;0;0;0;7;0;7557;0;0;0;0;8;0;3585;0;0;0;0;9;0;4021;0;0;0;0
19.11.20;18:00:00;1;281;8208;0;2;0;4066;0;0;0;0;3;0;2784;0;0;0;0;4;0;3797;0;0;0;0;5;0;0;0;0;0;0;0;0;6;0;9889;2;0;0;0;0;0;7;0;7557;0;0;0;0;8;0;3585;0;0;0;0;9;0;4021;0;0;0;0
19.11.20;17:55:00;1;284;8184;0;2;0;4066;0;0;0;0;3;0;2784;0;0;0;0;4;0;3797;0;0;0;0;5;0;0;0;0;0;0;0;0;6;0;9889;2;0;0;0;0;0;7;0;7557;0;0;0;0;8;0;3585;0;0;0;0;9;0;4021;0;0;0;0
19.11.20;17:50:00;1;391;8161;0;2;0;4066;0;0;0;0;3;0;2784;0;0;0;0;4;0;3797;0;0;0;0;5;0;0;0;0;0;0;0;0;6;0;9889;2;0;0;0;0;0;7;0;7557;0;0;0;0;8;0;3585;0;0;0;0;9;0;4021;0;0;0;0
19.11.20;17:45:00;1;378;8129;0;2;0;4066;0;0;0;0;3;0;2784;0;0;0;0;4;0;3797;0;0;0;0;5;0;0;0;0;0;0;0;0;6;0;9889;2;0;0;0;0;0;7;0;7557;0;0;0;0;8;0;3585;0;0;0;0;9;0;4021;0;0;0;0
19.11.20;17:40:00;1;376;8098;0;2;0;4066;0;0;0;0;3;0;2784;0;0;0;0;4;0;3797;0;0;0;0;5;0;0;0;0;0;0;0;0;6;0;9889;2;0;0;0;0;0;7;0;7557;0;0;0;0;8;0;3585;0;0;0;0;9;0;4021;0;0;0;0
19.11.20;17:35:00;1;327;8066;0;2;0;4066;0;0;0;0;3;0;2784;0;0;0;0;4;0;3797;0;0;0;0;5;0;0;0;0;0;0;0;0;6;0;9889;2;0;0;0;0;0;7;0;7557;0;0;0;0;8;0;3585;0;0;0;0;9;0;4021;0;0;0;0
19.11.20;17:30:00;1;350;8038;0;2;0;4066;0;0;0;0;3;0;2784;0;0;0;0;4;0;3797;0;0;0;0;5;0;0;0;0;0;0;0;0;6;0;9889;2;0;0;0;0;0;7;0;7557;0;0;0;0;8;0;3585;0;0;0;0;9;0;4021;0;0;0;0
19.11.20;17:25:00;1;273;8012;0;2;0;4066;0;0;0;0;3;0;2784;0;0;0;0;4;0;3797;0;0;0;0;5;0;0;0;0;0;0;0;0;6;0;9889;2;0;0;0;0;0;7;0;7557;0;0;0;0;8;0;3585;0;0;0;0;9;0;4021;0;0;0;0
19.11.20;17:20:00;1;296;7989;0;2;0;4066;0;0;0;0;3;0;2784;0;0;0;0;4;0;3797;0;0;0;0;5;0;0;0;0;0;0;0;0;6;0;9889;2;0;0;0;0;0;7;0;7557;0;0;0;0;8;0;3585;0;0;0;0;9;0;4021;0;0;0;0
19.11.20;17:15:00;1;280;7963;0;2;0;4066;0;0;0;0;3;0;2784;0;0;0;0;4;0;3797;0;0;0;0;5;0;0;0;0;0;0;0;0;6;0;9889;2;0;0;0;0;0;7;0;7557;0;0;0;0;8;0;3585;0;0;0;0;9;0;4021;0;0;0;0
19.11.20;17:10:00;1;269;7939;0;2;0;4066;0;0;0;0;3;0;2784;0;0;0;0;4;0;3797;0;0;0;0;5;0;0;0;0;0;0;0;0;6;0;9889;2;0;0;0;0;0;7;0;7557;0;0;0;0;8;0;3585;0;0;0;0;9;0;4021;0;0;0;0
19.11.20;17:05:00;1;281;7917;0;2;0;4066;0;0;0;0;3;0;2784;0;0;0;0;4;0;3797;0;0;0;0;5;0;0;0;0;0;0;0;0;6;0;9889;2;0;0;0;0;0;7;0;7557;0;0;0;0;8;0;3585;0;0;0;0;9;0;4021;0;0;0;0
19.11.20;17:00:00;1;322;7891;0;2;0;4066;0;0;0;0;3;0;2784;0;0;0;0;4;0;3797;0;0;0;0;5;0;0;0;0;0;0;0;0;6;0;9889;2;0;0;0;0;0;7;0;7557;0;0;0;0;8;0;3585;0;0;0;0;9;0;4021;0;0;0;0
19.11.20;16:55:00;1;352;7863;0;2;0;4066;0;0;0;0;3;0;2784;0;0;0;0;4;0;3797;0;0;0;0;5;0;0;0;0;0;0;0;0;6;0;9889;2;0;0;0;0;0;7;0;7557;0;0;0;0;8;0;3585;0;0;0;0;9;0;4021;0;0;0;0
19.11.20;16:50:00;1;1557;7835;0;2;0;4066;0;0;0;0;3;0;2784;0;0;0;0;4;0;3797;0;0;0;0;5;0;0;0;0;0;0;0;0;6;0;9889;2;0;0;0;0;0;7;0;7557;0;0;0;0;8;0;3585;0;0;0;0;9;0;4021;0;0;0;0
19.11.20;16:45:00;1;406;7703;0;2;0;4066;0;0;0;0;3;0;2784;0;0;0;0;4;0;3797;0;0;0;0;5;0;0;0;0;0;0;0;0;6;0;9889;2;0;0;0;0;0;7;0;7557;0;0;0;0;8;0;3585;0;0;0;0;9;0;4021;0;0;0;0
19.11.20;16:40:00;1;380;7668;0;2;0;4066;0;0;0;0;3;0;2784;0;0;0;0;4;0;3797;0;0;0;0;5;0;0;0;0;0;0;0;0;6;0;9889;2;0;0;0;0;0;7;0;7557;0;0;0;0;8;0;3585;0;0;0;0;9;0;4021;0;0;0;0
19.11.20;16:35:00;1;468;7636;0;2;0;4066;0;0;0;0;3;0;2784;0;0;0;0;4;0;3797;0;0;0;0;5;0;0;0;0;0;0;0;0;6;0;9889;2;0;0;0;0;0;7;0;7557;0;0;0;0;8;0;3585;0;0;0;0;9;0;4021;0;0;0;0
19.11.20;16:30:00;1;364;7596;0;2;0;4066;0;0;0;0;3;0;2784;0;0;160;9;4;0;3797;0;0;0;0;5;0;0;0;0;0;0;0;0;6;0;9889;2;0;0;0;0;0;7;0;7557;0;0;0;0;8;0;3585;0;0;0;0;9;0;4021;0;0;0;0
19.11.20;16:25:00;1;310;7563;0;2;0;4066;0;0;175;8;3;0;2784;6;0;290;15;4;0;3797;0;0;37;8;5;0;0;0;0;0;0;0;0;6;0;9889;0;0;0;0;0;0;7;0;7557;0;0;0;0;8;0;3585;0;0;0;0;9;0;4021;0;0;0;0
19.11.20;16:20:00;1;266;7536;0;2;0;4066;6;0;293;12;3;0;2784;6;0;329;15;4;0;3797;1;0;78;12;5;0;0;0;0;0;0;0;0;6;0;9889;1;0;0;0;0;1;7;0;7557;0;0;0;0;8;0;3585;0;0;0;0;9;0;4021;0;0;0;0
19.11.20;16:15:00;1;267;7514;0;2;0;4066;6;0;313;12;3;0;2784;6;0;375;16;4;0;3797;1;0;100;12;5;0;0;0;0;0;0;0;0;6;0;9889;1;0;0;0;0;4;7;0;7557;0;0;0;0;8;0;3585;0;0;0;0;9;0;4021;0;0;0;0
19.11.20;16:10:00;1;278;7492;0;2;0;4066;6;0;316;12;3;0;2784;6;0;382;16;4;0;3797;1;0;104;12;5;0;0;0;0;0;0;0;0;6;0;9889;1;2;1;25;36;8;7;0;7557;0;0;0;0;8;0;3585;0;0;0;0;9;0;4021;0;0;0;0
19.11.20;16:05:00;1;338;7469;0;2;0;4066;6;0;350;13;3;0;2784;6;1;422;16;4;0;3797;1;0;145;13;5;0;0;0;0;0;0;0;0;6;0;9889;23;7;4;180;478;23;7;0;7557;0;0;227;14;8;0;3585;0;0;231;13;9;0;4021;6;0;290;12
19.11.20;16:00:00;1;364;7441;0;2;0;4066;6;0;352;13;3;0;2784;6;1;426;16;4;0;3797;1;0;147;13;5;0;0;0;0;0;0;0;0;6;0;9889;23;3;6;468;224;23;7;0;7557;6;0;314;17;8;0;3585;6;0;314;16;9;0;4021;6;0;337;12
19.11.20;15:55:00;1;388;7412;0;2;0;4066;6;0;368;13;3;0;2784;6;1;442;16;4;0;3797;1;0;172;13;5;0;0;0;0;0;0;0;0;6;0;9889;23;6;4;238;472;23;7;0;7557;6;0;334;17;8;0;3585;6;0;336;16;9;0;4021;6;0;350;12
19.11.20;15:50:00;1;338;7379;0;2;0;4066;6;0;371;13;3;0;2784;6;1;453;16;4;0;3797;1;0;178;13;5;0;0;0;0;0;0;0;0;6;0;9889;23;6;3;181;535;24;7;0;7557;6;0;356;17;8;0;3585;6;0;358;16;9;0;4021;6;0;389;13
19.11.20;15:45:00;1;375;7351;0;2;0;4066;6;0;393;13;3;1;2784;6;3;479;16;4;0;3797;1;0;210;14;5;0;0;0;0;0;0;0;0;6;0;9889;23;1;9;511;566;24;7;0;7557;6;1;394;18;8;0;3585;6;0;401;16;9;0;4021;6;2;420;13
19.11.20;15:40:00;1;376;7320;0;2;0;4066;6;0;403;13;3;1;2784;6;3;492;16;4;0;3797;1;0;206;14;5;0;0;0;0;0;0;0;0;6;0;9889;8;2;6;506;576;24;7;0;7557;6;0;449;18;8;0;3585;6;0;449;16;9;0;4021;6;1;477;13
19.11.20;15:35:00;1;349;7287;0;2;0;4066;6;0;415;13;3;2;2784;4;5;505;16;4;2;3797;3;2;219;14;5;0;0;0;0;0;0;0;0;6;22;9889;1;10;12;346;335;25;7;0;7557;3;2;455;18;8;0;3585;4;1;458;17;9;2;4021;6;3;503;13
19.11.20;15:30:00;1;357;7258;0;2;0;4066;6;0;406;14;3;4;2784;3;13;449;17;4;0;3797;3;0;224;14;5;0;0;0;0;0;0;0;0;6;0;9887;8;4;4;446;582;25;7;2;7557;6;2;447;18;8;0;3585;6;1;449;17;9;3;4021;3;5;473;13
19.11.20;15:25:00;1;275;7227;0;2;0;4066;6;0;403;14;3;1;2783;6;3;492;17;4;0;3797;3;0;221;14;5;0;0;0;0;0;0;0;0;6;29;9887;1;13;27;512;491;26;7;0;7557;6;1;438;18;8;0;3585;6;0;441;17;9;1;4020;6;2;476;13
19.11.20;15:20:00;1;277;7204;0;2;0;4066;6;0;415;14;3;1;2783;6;10;480;17;4;0;3797;3;0;200;14;5;0;0;0;0;0;0;0;0;6;64;9884;4;36;50;470;448;26;7;0;7557;6;4;458;18;8;0;3585;6;3;441;17;9;0;4020;6;3;511;13
19.11.20;15:15:00;1;277;7181;0;2;5;4066;6;11;407;14;3;4;2783;6;15;480;17;4;0;3797;3;0;200;14;5;0;0;0;0;0;0;0;0;6;31;9879;4;11;15;514;537;25;7;2;7557;6;5;457;18;8;0;3585;6;3;434;17;9;0;4020;6;4;504;13
19.11.20;15:10:00;1;302;7158;0;2;3;4066;4;9;406;14;3;1;2783;6;5;507;17;4;0;3797;3;0;221;15;5;0;0;0;0;0;0;0;0;6;45;9876;1;21;18;469;312;26;7;0;7557;6;0;476;18;8;0;3585;6;1;457;17;9;0;4020;6;3;503;14
19.11.20;15:05:00;1;325;7133;0;2;19;4065;6;35;390;15;3;3;2783;6;12;491;17;4;7;3797;3;7;199;15;5;0;0;0;0;0;0;0;0;6;70;9873;4;52;37;440;256;27;7;0;7557;4;4;470;19;8;1;3585;6;1;461;17;9;0;4020;6;4;519;14
19.11.20;15:00:00;1;349;7106;0;2;22;4064;6;38;391;15;3;5;2783;3;16;480;17;4;10;3796;3;10;199;15;5;0;0;0;0;0;0;0;0;6;66;9867;4;54;37;440;256;27;7;9;7557;3;16;445;19;8;1;3585;3;5;446;17;9;3;4020;4;10;493;14
19.11.20;14:55:00;1;368;7075;0;2;75;4062;4;108;372;15;3;20;2782;6;31;526;17;4;44;3796;3;46;198;15;5;0;0;0;0;0;0;0;0;6;101;9861;4;69;46;440;256;27;7;22;7556;6;30;484;19;8;4;3585;6;13;460;17;9;6;4020;6;11;534;14
19.11.20;14:50:00;1;371;7044;0;2;110;4055;4;144;358;15;3;26;2780;4;38;526;17;4;76;3792;5;79;202;15;5;0;0;0;0;0;0;0;0;6;140;9852;4;96;64;440;256;26;7;86;7554;4;123;440;19;8;5;3585;6;7;501;17;9;13;4019;6;22;527;14
19.11.20;14:45:00;1;276;7017;0;2;150;4046;4;185;368;16;3;75;2777;6;107;506;18;4;111;3785;3;115;215;15;5;0;0;0;0;0;0;0;0;6;171;9840;4;106;68;440;256;26;7;124;7546;4;159;449;19;8;11;3584;6;23;482;18;9;43;4018;6;58;531;14
19.11.20;14:40:00;1;376;6993;0;2;147;4033;4;182;378;16;3;87;2771;4;123;470;18;4;103;3775;5;107;219;15;5;0;0;0;0;0;0;0;0;6;169;9826;4;96;60;440;256;27;7;127;7535;4;162;456;19;8;21;3584;6;33;479;18;9;51;4014;4;70;487;14
19.11.20;14:35:00;1;990;6962;0;2;119;4021;4;154;372;16;3;67;2764;4;100;445;18;4;80;3767;3;83;198;15;5;0;0;0;0;0;0;0;0;6;144;9812;4;85;53;440;255;26;7;83;7525;4;117;461;19;8;6;3582;6;15;477;18;9;13;4010;6;22;526;14
19.11.20;14:30:00;1;373;6865;0;2;88;4011;4;121;373;16;3;8;2758;6;13;539;18;4;58;3760;3;60;198;15;5;0;0;0;0;0;0;0;0;6;119;9800;4;75;48;440;256;26;7;64;7518;4;103;412;19;8;2;3581;6;7;496;18;9;6;4009;6;11;548;14
19.11.20;14:25:00;1;302;6834;0;2;54;4004;4;87;363;16;3;8;2758;6;18;500;18;4;19;3755;3;20;198;15;5;0;0;0;0;0;0;0;0;6;82;9790;4;34;23;440;256;26;7;11;7513;3;23;457;19;8;1;3581;6;6;479;18;9;2;4008;6;7;532;15
19.11.20;14:20:00;1;312;6809;0;2;69;3999;4;101;360;16;3;5;2757;6;9;536;18;4;36;3754;3;38;198;15;5;0;0;0;0;0;0;0;0;6;99;9783;4;52;37;440;256;27;7;43;7511;4;79;396;19;8;5;3581;3;14;450;18;9;5;4008;3;13;522;15
19.11.20;14:15:00;1;318;6783;0;2;118;3993;4;152;371;16;3;58;2757;6;90;487;18;4;70;3751;3;73;202;15;5;0;0;0;0;0;0;0;0;6;141;9775;4;81;51;440;256;26;7;93;7508;4;128;427;20;8;11;3581;6;21;466;19;9;20;4008;6;30;535;15
19.11.20;14:10:00;1;319;6757;0;2;144;3983;4;180;374;16;3;84;2752;4;119;489;19;4;108;3744;5;112;220;15;5;0;0;0;0;0;0;0;0;6;172;9762;4;110;69;440;256;26;7;129;7500;4;169;435;20;8;44;3580;4;78;399;19;9;73;4005;4;101;487;16
19.11.20;14:05:00;1;365;6730;0;2;213;3971;4;252;384;16;3;126;2745;4;165;502;19;4;163;3735;5;169;225;15;5;0;0;0;0;0;0;0;0;6;229;9748;4;131;81;440;256;26;7;191;7489;4;241;449;20;8;70;3576;4;118;452;19;9;106;3999;4;139;505;16
19.11.20;14:00:00;1;291;6698;0;2;205;3954;4;241;381;16;3;118;2734;4;159;507;19;4;157;3722;5;163;227;15;5;0;0;0;0;0;0;0;0;6;220;9728;4;131;82;440;256;26;7;194;7473;4;230;450;20;8;65;3570;4;103;473;19;9;102;3990;4;134;494;16
19.11.20;13:55:00;1;329;6674;0;2;183;3936;4;220;373;16;3;107;2724;4;147;499;19;4;141;3709;5;147;226;15;5;0;0;0;0;0;0;0;0;6;204;9710;4;141;88;440;256;26;7;170;7456;4;212;442;20;8;48;3564;4;96;470;19;9;94;3982;4;126;486;16
19.11.20;13:50:00;1;295;6647;0;2;167;3921;4;204;382;17;3;95;2715;4;137;499;19;4;125;3697;5;130;224;15;5;0;0;0;0;0;0;0;0;6;191;9693;4;129;83;440;256;26;7;153;7442;4;189;421;20;8;44;3560;4;93;453;19;9;81;3974;4;112;466;16
19.11.20;13:45:00;1;280;6621;0;2;196;3907;4;235;382;17;3;117;2707;4;156;489;19;4;153;3687;5;159;225;16;5;0;0;0;0;0;0;0;0;6;227;9677;4;145;87;471;256;26;7;200;7429;4;237;427;20;8;72;3557;4;111;453;19;9;106;3967;4;138;502;16
19.11.20;13:40:00;1;387;6597;0;2;266;3891;4;306;384;17;3;154;2698;4;204;496;19;4;212;3674;5;220;228;16;5;0;0;0;0;0;0;0;0;6;315;9657;4;202;106;558;256;26;7;268;7412;4;316;461;20;8;112;3551;4;153;454;19;9;148;3958;4;182;504;16
19.11.20;13:35:00;1;455;6565;0;2;349;3869;4;392;392;17;3;214;2685;4;257;505;19;4;280;3656;5;292;234;16;5;0;0;0;0;0;0;0;0;6;389;9631;4;269;134;572;255;26;7;318;7390;4;360;451;20;8;134;3541;4;175;461;19;9;173;3946;4;207;510;16
19.11.20;13:30:00;1;379;6530;0;2;364;3839;4;409;397;17;3;227;2667;4;270;497;19;4;304;3633;5;316;234;16;5;0;0;0;0;0;0;0;0;6;416;9597;4;304;154;574;256;26;7;364;7363;4;400;461;20;8;151;3530;4;193;469;19;9;198;3931;4;229;517;16
19.11.20;13:25:00;1;381;6499;0;2;322;3809;4;363;391;17;3;197;2648;4;239;503;19;4;265;3607;5;276;234;16;5;0;0;0;0;0;0;0;0;6;380;9564;4;275;140;573;256;26;7;320;7333;4;375;470;20;8;144;3518;4;182;453;19;9;182;3915;4;215;516;16
19.11.20;13:20:00;1;483;6467;0;2;392;3782;4;439;398;17;3;244;2631;4;289;507;19;4;336;3585;5;350;237;16;5;0;0;0;0;0;0;0;0;6;461;9531;4;326;164;585;256;27;7;409;7306;4;460;472;20;8;186;3506;4;222;457;19;9;223;3899;4;261;514;16